�N����,����,�~����,�C��,���x,�C��,����,���ϕ���,�ő�u�ԕ���,�ő厞����,���˗�,�I�_���x,�n�����x,�ő啗���N��,DTYPE
"23/09/09","00:10",0.0,22.5,91.1,1003.6,347.4,1.3,3.4,327.7,0.00,21.0,24.6,"00:02:08",1
"23/09/09","00:20",0.0,22.3,91.1,1002.9,340.3,1.2,2.2,344.9,0.00,20.8,24.7,"00:13:12",1
"23/09/09","00:30",0.0,22.3,91.2,1003.1,329.8,1.2,2.1,326.6,0.00,20.8,24.5,"00:22:48",1
"23/09/09","00:40",0.0,22.3,91.3,1003.4,326.7,1.1,1.9,328.2,0.00,20.9,24.7,"00:35:44",1
"23/09/09","00:50",0.0,22.2,91.4,1003.1,322.6,0.8,1.4,353.7,0.00,20.8,24.4,"00:48:08",1
"23/09/09","01:00",0.0,22.0,91.6,1003.6,328.7,1.2,1.8,322.7,0.00,20.6,24.5,"00:58:48",1
"23/09/09","01:10",0.0,22.0,91.8,1002.9,335.1,1.1,1.8,336.3,0.00,20.6,24.6,"01:05:52",1
"23/09/09","01:20",0.0,22.2,91.9,1002.9,326.4,1.1,2.7,330.3,0.00,20.9,24.5,"01:17:36",1
"23/09/09","01:30",0.0,22.3,91.9,1003.1,319.1,0.8,2.1,344.2,0.00,21.0,24.3,"01:20:32",1
"23/09/09","01:40",0.0,22.3,92.0,1002.9,337.6,0.8,1.7,341.9,0.00,21.0,24.4,"01:36:48",1
"23/09/09","01:50",0.0,22.1,92.1,1003.1,330.6,1.2,1.8,333.5,0.00,20.8,24.5,"01:48:16",1
"23/09/09","02:00",0.0,22.0,92.3,1003.1,327.6,1.2,1.4,331.5,0.00,20.7,24.2,"01:51:04",1
"23/09/09","02:10",0.0,22.1,92.4,1002.6,344.2,1.2,1.9,337.4,0.00,20.8,24.3,"02:03:52",1
"23/09/09","02:20",0.0,21.9,92.5,1002.6,325.6,1.1,1.6,338.0,0.00,20.7,24.3,"02:12:24",1
"23/09/09","02:30",0.0,21.6,92.6,1003.4,312.6,1.0,1.6,316.7,0.00,20.4,24.1,"02:22:00",1
"23/09/09","02:40",0.0,21.6,92.8,1003.1,337.6,1.1,1.8,345.1,0.00,20.4,24.5,"02:37:28",1
"23/09/09","02:50",0.0,21.6,92.9,1003.1,338.5,1.0,1.7,346.4,0.00,20.4,24.2,"02:44:24",1
"23/09/09","03:00",0.0,21.7,93.1,1002.9,339.1,1.3,2.1,335.7,0.00,20.6,24.5,"02:52:56",1
"23/09/09","03:10",0.0,21.7,93.2,1003.1,334.9,1.3,1.8,356.8,0.00,20.6,24.2,"03:09:36",1
"23/09/09","03:20",0.0,21.7,93.3,1003.1,313.9,0.8,2.7,325.5,0.00,20.6,24.4,"03:10:48",1
"23/09/09","03:30",0.0,21.5,93.4,1003.4,311.9,0.8,1.7,304.5,0.00,20.4,24.3,"03:27:20",1
"23/09/09","03:40",0.0,21.3,93.5,1003.1,318.9,1.0,1.4,319.3,0.00,20.2,24.2,"03:34:48",1
"23/09/09","03:50",0.0,21.2,93.6,1003.6,336.4,0.3,1.3,345.7,0.00,20.2,24.2,"03:49:20",1
"23/09/09","04:00",0.0,21.1,93.7,1003.4,324.0,1.3,1.6,334.6,0.00,20.1,24.0,"03:52:24",1
"23/09/09","04:10",0.0,21.1,93.9,1003.6,292.5,1.0,1.3,307.0,0.00,20.1,24.1,"04:04:24",1
"23/09/09","04:20",0.0,21.2,94.0,1003.4,304.1,1.1,1.6,318.6,0.00,20.2,24.2,"04:14:24",1
"23/09/09","04:30",0.0,21.2,94.0,1003.4,306.4,1.1,2.1,315.9,0.00,20.2,23.9,"04:23:20",1
"23/09/09","04:40",0.0,21.0,94.1,1003.6,299.3,0.3,0.9,318.2,0.00,20.1,24.1,"04:30:24",1
"23/09/09","04:50",0.0,20.9,94.2,1003.6,321.6,0.7,1.2,324.4,0.00,20.0,24.3,"04:47:12",1
"23/09/09","05:00",0.0,20.9,94.3,1003.6,324.1,1.0,1.4,312.8,0.00,20.0,24.1,"04:52:56",1
"23/09/09","05:10",0.0,20.9,94.4,1003.8,326.3,1.1,1.6,345.3,0.00,20.0,24.2,"05:05:20",1
"23/09/09","05:20",0.0,20.6,94.6,1004.1,289.9,0.8,1.2,313.7,0.00,19.7,24.0,"05:14:32",1
"23/09/09","05:30",0.0,20.5,94.7,1004.1,317.6,1.1,1.6,334.1,0.00,19.7,23.9,"05:26:24",1
"23/09/09","05:40",0.0,20.8,94.8,1004.3,314.1,1.1,1.6,339.0,0.00,20.0,23.9,"05:30:08",1
"23/09/09","05:50",0.0,21.0,94.9,1004.1,310.8,1.2,2.4,316.4,0.00,20.2,24.0,"05:40:24",1
"23/09/09","06:00",0.0,21.0,94.9,1004.1,324.5,1.3,1.8,329.9,0.00,20.2,23.9,"05:58:08",1
"23/09/09","06:10",0.0,21.3,94.9,1004.1,294.4,0.7,1.4,323.6,0.00,20.5,23.9,"06:00:08",1
"23/09/09","06:20",0.0,21.4,95.0,1004.3,323.9,1.3,3.2,339.1,0.00,20.6,23.8,"06:18:16",1
"23/09/09","06:30",0.0,21.7,95.1,1004.1,325.7,1.2,2.0,306.7,0.00,20.9,23.9,"06:21:20",1
"23/09/09","06:40",0.0,22.3,95.1,1004.3,345.6,0.8,1.7,343.1,0.02,21.5,24.0,"06:33:04",1
"23/09/09","06:50",0.0,23.0,95.0,1003.6,26.0,0.3,1.0,338.7,0.03,22.2,24.0,"06:40:24",1
"23/09/09","07:00",0.0,23.5,94.7,1004.1,21.8,0.6,1.8,6.0,0.05,22.6,23.7,"06:56:16",1
"23/09/09","07:10",0.0,24.1,94.2,1003.8,327.4,0.7,1.3,347.2,0.07,23.1,24.0,"07:05:36",1
"23/09/09","07:20",0.0,24.1,93.4,1004.1,323.8,0.7,2.0,348.5,0.10,23.0,24.1,"07:10:02",1
"23/09/09","07:30",0.0,24.5,92.8,1004.1,339.6,0.8,1.7,347.5,0.12,23.3,24.1,"07:20:08",1
"23/09/09","07:40",0.0,25.0,91.7,1004.3,137.1,0.6,1.1,124.1,0.14,23.6,23.9,"07:33:12",1
"23/09/09","07:50",0.0,25.4,90.4,1004.1,172.3,0.5,1.3,132.1,0.15,23.8,23.8,"07:45:20",1
"23/09/09","08:00",0.0,25.9,87.3,1003.6,117.2,0.7,1.3,133.0,0.17,23.7,23.9,"07:53:28",1
"23/09/09","08:10",0.0,26.7,83.5,1003.6,84.1,0.6,1.6,122.5,0.19,23.7,23.9,"08:06:00",1
"23/09/09","08:20",0.0,26.7,79.7,1003.4,128.3,0.6,2.1,101.8,0.13,22.9,23.9,"08:18:24",1
"23/09/09","08:30",0.0,26.6,79.4,1003.6,101.7,0.6,1.6,138.5,0.09,22.8,23.8,"08:23:28",1
"23/09/09","08:40",0.0,26.7,79.4,1003.6,68.8,0.6,1.8,22.2,0.17,22.9,23.8,"08:38:16",1
"23/09/09","08:50",0.0,28.0,76.7,1003.8,22.0,0.8,2.4,11.7,0.33,23.6,24.0,"08:43:04",1
"23/09/09","09:00",0.0,28.6,72.9,1004.5,35.4,1.0,2.2,335.7,0.37,23.3,23.9,"08:51:04",1
"23/09/09","09:10",0.0,29.5,71.0,1005.0,85.1,0.8,2.9,219.0,0.42,23.7,24.0,"09:08:00",1
"23/09/09","09:20",0.0,28.6,73.0,1005.2,141.6,1.6,3.3,186.9,0.28,23.3,24.0,"09:10:48",1
"23/09/09","09:30",0.0,27.8,73.9,1004.8,164.8,1.5,2.7,199.8,0.19,22.8,24.2,"09:24:56",1
"23/09/09","09:40",0.0,27.8,75.3,1004.5,137.6,0.8,2.0,127.3,0.16,23.1,24.3,"09:38:16",1
"23/09/09","09:50",0.0,28.8,73.1,1004.8,164.4,0.8,3.2,210.9,0.38,23.5,24.3,"09:49:36",1
"23/09/09","10:00",0.0,29.3,69.8,1005.2,158.6,1.0,2.1,208.8,0.39,23.3,24.4,"09:50:16",1
"23/09/09","10:10",0.0,29.8,68.7,1005.7,145.2,0.5,1.3,168.4,0.29,23.5,24.4,"10:03:20",1
"23/09/09","10:20",0.0,30.5,68.0,1005.5,122.7,0.8,2.1,147.5,0.42,24.0,24.5,"10:10:24",1
"23/09/09","10:30",0.0,30.1,65.0,1005.5,167.6,1.2,2.8,198.3,0.45,22.8,24.5,"10:22:00",1
"23/09/09","10:40",0.0,30.3,65.8,1005.5,203.8,1.7,4.9,213.0,0.49,23.2,24.4,"10:36:40",1
"23/09/09","10:50",0.0,30.5,65.4,1005.5,146.9,1.1,2.6,185.1,0.42,23.3,24.9,"10:42:40",1
"23/09/09","11:00",0.0,30.6,62.3,1005.7,149.3,1.1,2.4,157.1,0.41,22.6,24.5,"10:56:48",1
"23/09/09","11:10",0.0,29.6,65.6,1005.2,154.3,1.2,2.4,211.4,0.13,22.5,24.7,"11:02:16",1
"23/09/09","11:20",0.0,29.6,66.0,1004.5,230.0,0.8,3.1,233.0,0.15,22.6,24.7,"11:12:32",1
"23/09/09","11:30",0.0,29.6,65.4,1004.8,173.5,1.2,2.4,191.2,0.24,22.5,24.8,"11:20:40",1
"23/09/09","11:40",0.0,29.3,66.4,1004.1,192.5,1.8,3.1,213.7,0.17,22.4,25.0,"11:35:44",1
"23/09/09","11:50",0.0,29.4,67.9,1004.3,182.1,1.6,2.7,184.0,0.23,22.9,24.9,"11:40:16",1
"23/09/09","12:00",0.0,31.1,64.1,1004.5,162.6,1.3,3.3,211.3,0.60,23.6,24.8,"11:51:28",1
"23/09/09","12:10",0.0,30.9,62.9,1004.5,190.2,1.1,3.7,236.0,0.28,23.0,24.9,"12:05:12",1
"23/09/09","12:20",0.0,30.6,62.5,1004.5,263.8,1.1,2.5,234.5,0.25,22.7,24.9,"12:11:04",1
"23/09/09","12:30",0.0,30.8,63.1,1004.8,223.6,1.0,2.7,233.6,0.27,23.0,25.1,"12:28:32",1
"23/09/09","12:40",0.0,31.0,63.7,1004.3,182.5,1.2,2.9,237.8,0.34,23.4,25.0,"12:31:52",1
"23/09/09","12:50",0.0,31.4,62.5,1005.0,199.1,1.3,3.3,217.9,0.46,23.4,25.2,"12:42:16",1
"23/09/09","13:00",0.0,31.0,60.8,1004.8,242.0,1.8,4.2,206.6,0.36,22.6,25.2,"12:55:12",1
"23/09/09","13:10",0.0,30.5,61.8,1004.5,246.2,1.2,2.8,239.4,0.21,22.4,25.3,"13:09:12",1
"23/09/09","13:20",0.0,31.2,61.2,1004.5,226.9,1.5,2.8,220.1,0.41,22.9,25.2,"13:17:12",1
"23/09/09","13:30",0.0,31.8,60.2,1004.3,311.1,1.2,2.6,193.1,0.40,23.2,25.3,"13:22:24",1
"23/09/09","13:40",0.0,31.8,61.0,1004.5,288.6,0.8,2.4,328.6,0.29,23.4,25.2,"13:30:08",1
"23/09/09","13:50",0.0,31.3,60.4,1004.5,221.3,0.7,2.6,234.1,0.16,22.8,25.3,"13:46:40",1
"23/09/09","14:00",0.0,31.7,61.6,1004.1,214.1,0.5,1.8,245.8,0.34,23.5,25.4,"13:50:02",1
"23/09/09","14:10",0.0,32.7,57.1,1004.3,18.4,0.7,1.8,43.9,0.39,23.1,25.6,"14:04:24",1
"23/09/09","14:20",0.0,32.6,55.5,1004.5,1.2,1.1,2.9,347.3,0.34,22.6,25.6,"14:13:52",1
"23/09/09","14:30",0.0,32.1,56.6,1004.3,260.9,0.7,3.1,309.9,0.23,22.4,25.8,"14:29:44",1
"23/09/09","14:40",0.0,32.2,56.9,1004.1,211.5,1.3,4.2,212.0,0.31,22.6,25.5,"14:38:32",1
"23/09/09","14:50",0.0,32.5,57.3,1004.1,208.0,1.5,3.2,204.2,0.33,23.0,25.6,"14:49:28",1
"23/09/09","15:00",0.0,32.3,56.5,1004.1,188.4,2.1,3.6,204.3,0.33,22.6,25.8,"14:58:08",1
"23/09/09","15:10",0.0,32.5,56.3,1003.8,187.9,1.2,3.5,212.6,0.27,22.7,25.5,"15:02:08",1
"23/09/09","15:20",0.0,32.5,55.9,1003.8,184.5,1.6,3.5,201.9,0.27,22.6,25.8,"15:18:32",1
"23/09/09","15:30",0.0,32.8,55.3,1004.1,258.4,1.0,2.7,238.5,0.25,22.7,25.9,"15:21:28",1
"23/09/09","15:40",0.0,32.7,53.2,1004.1,179.2,0.8,2.5,199.8,0.23,22.0,25.8,"15:38:56",1
"23/09/09","15:50",0.0,32.7,54.5,1004.1,212.0,1.2,2.9,237.1,0.20,22.4,26.0,"15:42:08",1
"23/09/09","16:00",0.0,32.5,54.8,1003.8,271.1,0.7,2.2,231.5,0.12,22.3,25.7,"15:59:04",1
"23/09/09","16:10",0.0,32.6,52.1,1003.8,256.5,0.8,2.4,200.8,0.14,21.5,25.9,"16:04:24",1
"23/09/09","16:20",0.0,33.1,53.4,1003.8,306.4,0.7,1.4,335.0,0.13,22.4,26.0,"16:11:36",1
"23/09/09","16:30",0.0,32.4,54.7,1003.4,294.8,0.6,2.0,341.0,0.08,22.1,26.0,"16:22:56",1
"23/09/09","16:40",0.0,32.3,52.6,1003.4,278.8,0.7,1.4,319.1,0.08,21.4,25.8,"16:32:24",1
"23/09/09","16:50",0.0,31.6,52.9,1002.9,217.3,1.2,2.7,192.8,0.04,20.9,26.1,"16:43:28",1
"23/09/09","17:00",0.0,30.6,56.1,1002.4,226.5,1.2,2.2,230.6,0.00,20.9,26.0,"16:53:28",1
"23/09/09","17:10",0.0,30.0,60.3,1002.4,227.9,1.0,2.2,243.1,0.00,21.5,25.8,"17:01:52",1
"23/09/09","17:20",0.0,29.4,61.6,1001.7,259.3,0.3,1.4,222.9,0.00,21.3,25.8,"17:10:24",1
"23/09/09","17:30",0.0,29.1,65.3,1001.5,341.5,0.8,2.0,353.6,0.00,22.0,26.0,"17:27:20",1
"23/09/09","17:40",0.0,28.4,67.2,1001.2,328.2,0.7,1.8,351.5,0.00,21.8,26.1,"17:35:20",1
"23/09/09","17:50",0.0,28.0,69.0,1001.5,301.3,0.5,1.6,319.6,0.00,21.8,25.8,"17:47:28",1
"23/09/09","18:00",0.0,27.4,70.4,1001.9,324.9,1.1,2.8,335.1,0.00,21.6,25.9,"17:54:32",1
"23/09/09","18:10",0.0,27.1,72.4,1002.4,311.4,0.8,2.8,345.2,0.00,21.7,25.8,"18:00:08",1
"23/09/09","18:20",0.0,26.8,74.1,1002.4,299.7,0.7,1.8,338.4,0.00,21.8,25.9,"18:19:04",1
"23/09/09","18:30",0.0,26.5,75.3,1002.4,308.8,1.0,2.0,345.2,0.00,21.8,25.9,"18:20:56",1
"23/09/09","18:40",0.0,26.2,75.9,1002.6,306.4,1.1,2.7,333.5,0.00,21.7,25.8,"18:35:04",1
"23/09/09","18:50",0.0,26.0,76.4,1003.1,5.5,0.5,1.3,322.8,0.00,21.6,25.7,"18:40:32",1
"23/09/09","19:00",0.0,25.9,77.1,1003.1,317.4,1.0,1.7,341.4,0.00,21.6,25.5,"18:59:12",1
"23/09/09","19:10",0.0,25.8,78.4,1002.9,359.3,0.8,1.8,345.0,0.00,21.8,25.6,"19:07:36",1
"23/09/09","19:20",0.0,25.4,79.1,1003.6,294.7,0.7,1.2,327.3,0.00,21.6,25.6,"19:10:16",1
"23/09/09","19:30",0.0,25.3,79.5,1003.8,293.3,0.8,1.9,258.8,0.00,21.5,25.6,"19:22:16",1
"23/09/09","19:40",0.0,25.3,80.0,1003.4,326.8,1.1,1.9,341.0,0.00,21.6,25.5,"19:35:28",1
"23/09/09","19:50",0.0,25.1,80.4,1003.8,337.8,0.5,1.1,353.0,0.00,21.5,25.6,"19:40:08",1
"23/09/09","20:00",0.0,24.8,81.5,1004.1,307.4,0.7,1.1,336.5,0.00,21.5,25.6,"19:58:08",1
"23/09/09","20:10",0.0,24.7,82.1,1004.1,314.0,0.8,1.9,321.7,0.00,21.5,25.6,"20:08:24",1
"23/09/09","20:20",0.0,24.7,82.3,1004.3,307.8,0.8,1.7,323.5,0.00,21.5,25.6,"20:12:08",1
"23/09/09","20:30",0.0,24.5,82.5,1004.3,304.3,0.6,1.2,330.9,0.00,21.4,25.6,"20:24:16",1
"23/09/09","20:40",0.0,24.6,82.8,1004.5,331.0,0.8,1.7,332.0,0.00,21.5,25.2,"20:31:44",1
"23/09/09","20:50",0.0,24.2,83.5,1004.5,333.8,0.7,1.4,315.3,0.00,21.3,25.5,"20:43:12",1
"23/09/09","21:00",0.0,24.0,84.2,1004.5,325.3,0.8,1.4,330.3,0.00,21.2,25.2,"20:57:04",1
"23/09/09","21:10",0.0,23.9,84.9,1004.8,320.5,1.0,1.6,313.3,0.00,21.2,25.3,"21:02:40",1
"23/09/09","21:20",0.0,23.9,85.0,1004.5,292.0,0.7,1.7,312.9,0.00,21.3,25.3,"21:10:24",1
"23/09/09","21:30",0.0,24.0,84.9,1004.5,311.4,1.1,1.9,317.2,0.00,21.3,25.3,"21:21:52",1
"23/09/09","21:40",0.0,23.9,84.8,1004.5,287.4,0.7,1.2,321.9,0.00,21.2,25.2,"21:37:28",1
"23/09/09","21:50",0.0,23.9,84.7,1004.8,287.4,0.8,1.3,250.7,0.00,21.2,25.2,"21:45:44",1
"23/09/09","22:00",0.0,23.9,84.6,1004.8,318.4,1.1,2.0,333.5,0.00,21.2,25.1,"21:58:40",1
"23/09/09","22:10",0.0,23.9,84.5,1005.0,325.5,1.2,2.0,333.5,0.00,21.2,25.0,"22:09:28",1
"23/09/09","22:20",0.0,23.8,84.6,1005.0,323.2,1.5,2.6,345.6,0.00,21.1,25.2,"22:12:16",1
"23/09/09","22:30",0.0,23.7,84.7,1005.0,296.7,1.0,2.0,313.0,0.00,21.0,25.0,"22:20:24",1
"23/09/09","22:40",0.0,23.6,84.8,1005.2,318.0,1.3,2.1,318.0,0.00,20.9,25.1,"22:31:36",1
"23/09/09","22:50",0.0,23.5,85.0,1005.0,320.9,1.7,3.2,339.3,0.00,20.9,25.0,"22:42:40",1
"23/09/09","23:00",0.0,23.4,85.2,1005.0,338.8,1.3,2.1,327.3,0.00,20.8,24.9,"22:50:16",1
"23/09/09","23:10",0.0,23.3,85.7,1005.5,336.6,1.7,2.8,345.7,0.00,20.8,24.9,"23:05:36",1
"23/09/09","23:20",0.0,23.2,86.0,1005.2,340.6,1.6,2.9,345.7,0.00,20.8,24.9,"23:10:48",1
"23/09/09","23:30",0.0,23.2,86.2,1005.2,336.3,1.6,2.7,347.2,0.00,20.8,25.0,"23:22:24",1
"23/09/09","23:40",0.0,23.1,86.2,1005.5,323.7,1.2,2.2,343.4,0.00,20.7,24.9,"23:32:00",1
"23/09/09","23:50",0.0,23.1,86.1,1005.0,316.5,1.1,2.1,331.4,0.00,20.7,24.9,"23:48:48",1
"23/09/09","24:00",0.0,23.2,85.9,1005.5,319.0,1.5,3.1,333.1,0.00,20.7,24.8,"23:58:16",1
